When you browse on this site, cookies collect data to enhance your experience and personalize the content and advertising you see.
Visit our Privacy Policy to learn more. By continuing to use the site, you agree to this use of cookies and data.
  • In Spain
  • List of Countries
  • For 7 days
  • Water Temperature
  • Satellite Maps
  • Weather Map
  • Weather Widgets
  • user-avatar
    Login

    Hourly Weather Kossuli

    Today, 19 February, Tuesday

    Time Temperature Precipitation Wind Pressure Humidity
    00:00 -10°C° 0 mm 2 mps 750 mmHg 89%
    01:00 -10°C° 0 mm 3 mps 750 mmHg 87%
    02:00 -9°C° 0 mm 3 mps 749 mmHg 86%
    03:00 -10°C° 0 mm 4 mps 748 mmHg 85%
    04:00 -9°C° 0 mm 4 mps 747 mmHg 84%
    05:00 -10°C° 0 mm 5 mps 746 mmHg 83%
    06:00 -10°C° 0 mm 5 mps 746 mmHg 81%
    07:00 -8°C° 0 mm 5 mps 745 mmHg 79%
    08:00 -8°C° 0 mm 5 mps 744 mmHg 78%
    09:00 -6°C° 0 mm 5 mps 744 mmHg 78%
    10:00 -4°C° 0 mm 4 mps 744 mmHg 79%
    11:00 -2°C° 0 mm 4 mps 743 mmHg 79%
    12:00 -2°C° 0 mm 4 mps 743 mmHg 81%
    13:00 -1°C° 0 mm 4 mps 742 mmHg 83%
    14:00 -1°C° 0 mm 4 mps 742 mmHg 86%
    15:00 -1°C° 0 mm 4 mps 742 mmHg 87%
    16:00 -1°C° 0 mm 3 mps 741 mmHg 88%
    17:00 -1°C° 0 mm 3 mps 741 mmHg 90%
    18:00 -1°C° 0 mm 3 mps 740 mmHg 90%
    19:00 -2°C° 0 mm 3 mps 740 mmHg 89%
    20:00 -3°C° 0 mm 4 mps 739 mmHg 89%
    21:00 -3°C° 0 mm 4 mps 738 mmHg 89%
    22:00 -2°C° 0 mm 4 mps 738 mmHg 90%
    23:00 -2°C° 0 mm 4 mps 737 mmHg 90%

    Tomorrow, 20 February, Wednesday

    Time Temperature Precipitation Wind Pressure Humidity
    00:00 -2°C° 0 mm 4 mps 736 mmHg 90%
    01:00 -2°C° 0 mm 4 mps 736 mmHg 89%
    02:00 -2°C° 0 mm 4 mps 735 mmHg 89%
    03:00 -1°C° 0.1 mm 4 mps 734 mmHg 89%
    04:00 -1°C° 0.1 mm 4 mps 734 mmHg 89%
    05:00 -1°C° 0.1 mm 4 mps 733 mmHg 90%
    06:00 -1°C° 0.2 mm 4 mps 733 mmHg 90%
    07:00 -1°C° 0.2 mm 4 mps 733 mmHg 91%
    08:00 0°C° 0.2 mm 4 mps 732 mmHg 92%
    09:00 0°C° 0 mm 4 mps 732 mmHg 93%
    10:00 0°C° 0 mm 4 mps 733 mmHg 94%
    11:00 0°C° 0 mm 4 mps 733 mmHg 94%
    12:00 0°C° 0.1 mm 4 mps 733 mmHg 93%
    13:00 0°C° 0.1 mm 4 mps 733 mmHg 92%
    14:00 0°C° 0.1 mm 4 mps 733 mmHg 91%
    15:00 0°C° 0.1 mm 4 mps 732 mmHg 92%
    16:00 +1°C° 0.1 mm 3 mps 732 mmHg 92%
    17:00 0°C° 0.1 mm 3 mps 732 mmHg 92%
    18:00 0°C° 0.2 mm 3 mps 732 mmHg 92%
    19:00 0°C° 0.2 mm 3 mps 731 mmHg 91%
    20:00 -1°C° 0.2 mm 4 mps 731 mmHg 91%
    21:00 0°C° 0.1 mm 3 mps 731 mmHg 92%
    22:00 0°C° 0.1 mm 3 mps 731 mmHg 92%
    23:00 0°C° 0.1 mm 3 mps 731 mmHg 93%

    Day after tomorrow, 21 February, Thursday

    Time Temperature Precipitation Wind Pressure Humidity
    00:00 0°C° 0.1 mm 3 mps 731 mmHg 94%
    01:00 +1°C° 0.1 mm 2 mps 731 mmHg 94%
    02:00 -1°C° 0.1 mm 2 mps 731 mmHg 95%
    03:00 -1°C° 0.4 mm 3 mps 731 mmHg 94%
    04:00 -1°C° 0.4 mm 3 mps 731 mmHg 93%
    05:00 -1°C° 0.4 mm 3 mps 731 mmHg 92%
    06:00 -3°C° 0.4 mm 4 mps 732 mmHg 92%
    07:00 -5°C° 0.4 mm 5 mps 732 mmHg 91%
    08:00 -6°C° 0.4 mm 6 mps 733 mmHg 90%
    09:00 -6°C° 0.5 mm 5 mps 733 mmHg 91%
    10:00 -6°C° 0.5 mm 5 mps 734 mmHg 91%
    11:00 -6°C° 0.5 mm 5 mps 735 mmHg 91%
    12:00 -7°C° 0.3 mm 5 mps 736 mmHg 89%
    13:00 -8°C° 0.3 mm 6 mps 737 mmHg 87%
    14:00 -9°C° 0.3 mm 6 mps 738 mmHg 85%
    15:00 -10°C° 0.1 mm 6 mps 739 mmHg 83%
    16:00 -10°C° 0.1 mm 6 mps 740 mmHg 82%
    17:00 -11°C° 0.1 mm 6 mps 741 mmHg 81%
    18:00 -12°C° 0.1 mm 6 mps 742 mmHg 81%
    19:00 -12°C° 0.1 mm 6 mps 743 mmHg 80%
    20:00 -14°C° 0.1 mm 6 mps 744 mmHg 79%
    21:00 -14°C° 0 mm 6 mps 745 mmHg 79%
    22:00 -15°C° 0 mm 6 mps 746 mmHg 79%
    23:00 -15°C° 0 mm 6 mps 746 mmHg 78%

    22 February, Friday

    Time Temperature Precipitation Wind Pressure Humidity
    00:00 -15°C° 0 mm 6 mps 747 mmHg 78%
    01:00 -16°C° 0 mm 6 mps 747 mmHg 78%
    02:00 -16°C° 0 mm 6 mps 748 mmHg 79%
    03:00 -15°C° 0 mm 5 mps 749 mmHg 79%
    04:00 -15°C° 0 mm 5 mps 749 mmHg 79%
    05:00 -17°C° 0 mm 5 mps 750 mmHg 79%
    06:00 -17°C° 0 mm 5 mps 750 mmHg 79%
    07:00 -17°C° 0 mm 5 mps 751 mmHg 79%
    08:00 -17°C° 0 mm 5 mps 751 mmHg 79%
    09:00 -15°C° 0 mm 5 mps 751 mmHg 78%
    10:00 -15°C° 0 mm 6 mps 751 mmHg 76%
    11:00 -14°C° 0 mm 6 mps 751 mmHg 74%
    12:00 -14°C° 0 mm 6 mps 752 mmHg 73%
    13:00 -14°C° 0 mm 6 mps 752 mmHg 72%
    14:00 -14°C° 0 mm 6 mps 752 mmHg 71%
    15:00 -15°C° 0 mm 6 mps 752 mmHg 73%
    16:00 -15°C° 0 mm 6 mps 753 mmHg 75%
    17:00 -16°C° 0 mm 6 mps 754 mmHg 76%
    18:00 -15°C° 0 mm 5 mps 754 mmHg 77%
    19:00 -15°C° 0 mm 5 mps 755 mmHg 78%
    20:00 -17°C° 0 mm 5 mps 755 mmHg 78%
    21:00 -17°C° 0 mm 5 mps 756 mmHg 80%
    22:00 -17°C° 0 mm 5 mps 756 mmHg 81%
    23:00 -16°C° 0 mm 4 mps 756 mmHg 82%

    23 February, Saturday

    Time Temperature Precipitation Wind Pressure Humidity
    00:00 -16°C° 0 mm 4 mps 757 mmHg 83%
    01:00 -16°C° 0 mm 4 mps 757 mmHg 84%
    02:00 -16°C° 0 mm 4 mps 758 mmHg 85%
    03:00 -17°C° 0 mm 4 mps 758 mmHg 86%
    04:00 -17°C° 0 mm 4 mps 758 mmHg 88%
    05:00 -16°C° 0 mm 3 mps 758 mmHg 89%
    06:00 -16°C° 0 mm 3 mps 758 mmHg 89%
    07:00 -17°C° 0 mm 3 mps 758 mmHg 90%
    08:00 -17°C° 0 mm 3 mps 759 mmHg 90%
    09:00 -16°C° 0 mm 3 mps 759 mmHg 87%
    10:00 -15°C° 0 mm 3 mps 759 mmHg 84%
    11:00 -14°C° 0 mm 3 mps 759 mmHg 81%
    12:00 -13°C° 0 mm 3 mps 759 mmHg 80%
    13:00 -12°C° 0 mm 3 mps 759 mmHg 78%
    14:00 -9°C° 0 mm 2 mps 759 mmHg 77%
    15:00 -10°C° 0 mm 2 mps 759 mmHg 81%
    16:00 -12°C° 0 mm 2 mps 759 mmHg 85%
    17:00 -11°C° 0 mm 1 mps 759 mmHg 89%
    18:00 -11°C° 0 mm 1 mps 759 mmHg 90%
    19:00 -11°C° 0 mm 1 mps 760 mmHg 90%
    20:00 -11°C° 0 mm 1 mps 760 mmHg 91%
    21:00 -11°C° 0 mm 1 mps 760 mmHg 90%
    22:00 -11°C° 0 mm 1 mps 760 mmHg 90%
    23:00 -11°C° 0 mm 1 mps 760 mmHg 89%

    24 February, Sunday

    Time Temperature Precipitation Wind Pressure Humidity
    00:00 -13°C° 0 mm 2 mps 760 mmHg 89%
    01:00 -12°C° 0 mm 2 mps 760 mmHg 89%
    02:00 -12°C° 0 mm 2 mps 760 mmHg 89%
    03:00 -12°C° 0 mm 2 mps 760 mmHg 90%
    04:00 -12°C° 0 mm 2 mps 760 mmHg 91%
    05:00 -12°C° 0 mm 2 mps 759 mmHg 92%
    06:00 -10°C° 0 mm 2 mps 760 mmHg 93%
    07:00 -10°C° 0 mm 2 mps 760 mmHg 94%
    08:00 -10°C° 0 mm 2 mps 760 mmHg 95%
    09:00 -9°C° 0 mm 2 mps 760 mmHg 93%
    10:00 -8°C° 0 mm 2 mps 760 mmHg 91%
    11:00 -7°C° 0 mm 2 mps 760 mmHg 90%
    12:00 -6°C° 0 mm 2 mps 759 mmHg 90%
    13:00 -6°C° 0 mm 3 mps 759 mmHg 90%
    14:00 -6°C° 0 mm 3 mps 759 mmHg 90%
    15:00 -6°C° 0 mm 3 mps 758 mmHg 91%
    16:00 -4°C° 0 mm 2 mps 758 mmHg 92%
    17:00 -4°C° 0 mm 2 mps 757 mmHg 93%
    18:00 -5°C° 0 mm 3 mps 757 mmHg 93%
    19:00 -4°C° 0 mm 3 mps 757 mmHg 93%
    20:00 -4°C° 0 mm 3 mps 756 mmHg 93%
    21:00 -4°C° 0.3 mm 3 mps 756 mmHg 93%
    22:00 -4°C° 0.3 mm 3 mps 755 mmHg 93%
    23:00 -4°C° 0.3 mm 4 mps 754 mmHg 93%
    Show more